Find Starlink 4112

NORAD ID: 52861 Int'l Des: 2022-062 Owner: SPXS Country: US Constellation: starlink operational
LEOCIRCULAR

Live Position

Loading 3D Globe...

About Starlink 4112

Description loading...

Upcoming Passes

Passes for default location (London). Set your location on the main map for personalized predictions.

Altitude History

Loading altitude history...

Two-Line Element Set

1 52861U 22062AH 26104.76081314 .00001285 00000-0 98767-4 0 9994
2 52861 53.2177 222.2009 0001342 84.4642 275.6503 15.08848454211373
Epoch: Apr 14, 2026 • Age: 14 hours

Current Status

Altitude 547.3 km
Velocity 7.59 km/s
Sub-Earth Point -24.58°S, 130.29°W
Launch Date Jun 17, 2022
Age 3.8 years
Type internet

Technical Details

Classification Payload
Mass 297.00 kg
Dry Mass 275.00 kg
Total Mass 297.00 kg
Length 0.20 m
Diameter 2.80 m
Span 9.00 m
Shape Box + pan
Manufacturer SPXS
Bus Type Starlink
Phase Status In Orbit
Owner/State SPXS/US

Most Searched